Location: Bretagne
(43.8474°N, 0.4650°W)
Time: 19:45:07
(UTC+00:00)

Cosmos 1959 Rocket - Pass Details

Date: 15 January 2026
Orbit: 947 x 996 km, 83.0° (Epoch: 13 February)

Event Time Altitude Azimuth Distance (km) Brightness Sun altitude
Rises 17:42:52 0° 353° (N) 3,628 7.3 -9.5°
Reaches altitude 10° 17:45:22 10° 356° (N) 2,681 6.7 -9.9°
Maximum altitude 17:51:29 72° 80° (E) 1,003 4.4 -11.0°
Drops below altitude 10° 17:57:37 10° 165° (SSE) 2,686 6.9 -12.0°
Sets 18:00:08 0° 168° (SSE) 3,635 7.6 -12.4°
